sat.trackr.live / text

‹ back to catalog

STARLINK-31055

NORAD 58539 · 2023-192J

PAYLOAD ACTIVE UNKNOWN

§ Identity

Operator
Country
US
Launch date
2023-12-08
Launch site
AFWTR
Launch vehicle
Mass (kg)
RCS (m²)

Purposes: comms

External: N2YO · Heavens-Above · Gunter

§ Orbital elements

Epoch: 2026-09-20T21:36:19.181664Z

Period
93.85 min
Inclination
53.1589°
Eccentricity
0.0001498
Mean motion
15.34385318 rev/d
Perigee alt
461.7 km
Apogee alt
463.8 km
Semi-major
6,840.9 km
B*
8.4425e-6
RAAN
231.7056°
Arg perigee
87.5306°
Mean anomaly
272.5868°
Rev number
15,593

§ Raw data

STARLINK-310551 58539U 23192J   26263.90022201 -.00000091  00000+0  84425-5 0  99902 58539  53.1589 231.7056 0001498  87.5306 272.5868 15.34385318155930

JSON: /api/v1/satellites/58539 · /tle

For live sub-satellite position, see the globe view (requires WebGL).

§ Visibility from observer

Set your observer location to see the next 7 days of passes ≥ 10°. The values pass through the URL so the page stays shareable.

No JS? Fill the form by hand. The geolocation button needs JavaScript.